This is the latest recevied weather packets stored in our database for station/object YN9ZAM-13. If no packets are shown the sender has not sent any weather packets the latest 10 day(s).
| Time | Temp. | Humidity | Pressure | Rain* | Wind** | Luminosity | Snow |
|---|---|---|---|---|---|---|---|
| 1778181257 | 34.44° C | 30% | 1010 hPa | 0 mm | - | - | - |
| 1778180657 | 35° C | 30% | 1010 hPa | 0 mm | - | - | - |
| 1778180056 | 35.56° C | 30% | 1010 hPa | 0 mm | - | - | - |
| 1778179456 | 32.78° C | 31% | 1011 hPa | 0 mm | - | - | - |
| 1778178855 | 33.33° C | 31% | 1011 hPa | 0 mm | - | - | - |
| 1778178255 | 33.89° C | 31% | 1012 hPa | 0 mm | - | - | - |
| 1778177655 | 32.22° C | 31% | 1012 hPa | 0 mm | - | - | - |
| 1778177055 | 32.78° C | 31% | 1012 hPa | 0 mm | - | - | - |
| 1778176454 | 31.11° C | 31% | 1012 hPa | 0 mm | - | - | - |
| 1778175854 | 30.56° C | 33% | 1012 hPa | 0 mm | - | - | - |
| 1778175254 | 30.56° C | 33% | 1012 hPa | 0 mm | - | - | - |
| 1778174653 | 30° C | 36% | 1013 hPa | 0 mm | - | - | - |
| 1778174053 | 30° C | 35% | 1013 hPa | 0 mm | - | - | - |
| 1778173452 | 30° C | 35% | 1013 hPa | 0 mm | - | - | - |
| 1778172852 | 30° C | 34% | 1013 hPa | 0 mm | - | - | - |
| 1778172252 | 30° C | 36% | 1013 hPa | 0 mm | - | - | - |
| 1778171652 | 30° C | 41% | 1013 hPa | 0 mm | - | - | - |
| 1778171051 | 30.56° C | 41% | 1013 hPa | 0 mm | - | - | - |
| 1778170451 | 30° C | 40% | 1013 hPa | 0 mm | - | - | - |
| 1778169851 | 28.33° C | 40% | 1013 hPa | 0 mm | - | - | - |
| 1778169250 | 28.33° C | 39% | 1013 hPa | 0 mm | - | - | - |
| 1778168650 | 28.33° C | 43% | 1013 hPa | 0 mm | - | - | - |
| 1778168050 | 28.33° C | 43% | 1013 hPa | 0 mm | - | - | - |
| 1778167449 | 26.67° C | 50% | 1013 hPa | 0 mm | - | - | - |
| 1778166848 | 26.67° C | 48% | 1013 hPa | 0 mm | - | - | - |
* Rain latest hour (hover to see other rain measurements)
** Current wind speed in m/s (hover to see current wind gust speed)